METEOR 2-11 DEB, 40317

Orbit data source: Space-Track

METEOR 2-11 DEB, 40317 is space debris in LEO originally from a launch on Thu, 05 Jul 1984 UTC launched from the Plesetsk Missile And Space Complex (PKMTR). Debris objects in space refer to the collection of defunct objects orbiting the Earth. Examples of debris include non-operational satellites, rocket bodies, and fragments generated from explosions, collisions, or faulty payload assembly.

Loading next visibility...
Identifier
40317, 1984-072C
Orbit
LEO
Last TLE update
2 days ago
Origin
Manufacturer
Unknown
Mission
Spacecraft
Bus & Motor
Unknown
Mass
Unknown
Launch date (UTC)
1984-07-05 (41 years ago)
Launch vehicle
Unknown
Launch site
Plesetsk Missile And Space Complex (PKMTR)
Object type
Payload
Rocket body
Debris
Shape & HBR
Unknown
Radar Cross Section
Small (<0.1 m²)

Expand to show TLE details & history

TLE from 2 days ago
0 METEOR 2-11 DEB
1 40317U 84072C   25182.61500968  .00002087  00000-0  14637-2 0  9999
2 40317  82.5189 292.2659 0008573 340.7270  19.3572 13.97865001537003
Epoch: 2025-07-01T14:45Z
TLE epoch observation values (Epoch: 2025-07-01T14:45:36.836Z)
Latitude
-0.00004°
Longitude
150.95449°
Altitude
898.23 km
Speed
7.406 km/s
True Right ascension
19h 29m 03s
True Declination
0° 00' 00"
Sunlit
Object was in full shadow at epoch
Visualization orbit readout
Latitude
2.23748°
Longitude
150.02054°
Altitude
898.22 km
Speed
7.406 km/s
Apparent Right ascension
22h 00m 54s
Apparent Declination
-27° 00' 01"
Sunlit
Object is in full shadow
Visualization observer readout
Local Sidereal Time
14:35:52
Azimuth
99.631° ESE
Elevation
-32.623°
Doppler factor
1
Orbital elements
Apogee altitude
904.57 km
Perigee altitude
892.094 km
Semi-major axis
7,276.469 km
Eccentricity
0.00086
Inclination
82.5189°
RAAN
292.2659°
Arg. of periapsis
340.727°
True anomaly
Unknown
Mean anomaly
19.3572°
Eccentric anomaly
Unknown
Mean motion
3.49673 °/min
Orbital period
102.95 mins
BSTAR
0.0014637
Loading maneuver chart data...
Loading SW <> Apogee altitude chart data...
Loading historical data...
Loading historical data...
Loading historical data...
Loading historical data...
Loading historical data...
Loading historical data...
Loading historical data...

METEOR 2-11 DEB Visibility forecast

Observer location: undefined°, undefined°

Span
Click to sort rows by Start time (UTC) header in descending order
Start Az.
Max El. time (UTC)
Max El. Az.
Max El.
End time (UTC)
End Az.
4 mins2025-07-03 06:25:46.916Z103.39° ESE2025-07-03 06:27:46.916Z82.318° E12.857°2025-07-03 06:29:46.916Z60.979° ENE
9 mins2025-07-03 08:06:46.916Z193.462° SSW2025-07-03 08:10:46.916Z261.492° W44.256°2025-07-03 08:15:46.916Z3.701° NNE
9 mins2025-07-03 18:53:46.916Z359.772° N2025-07-03 18:57:46.916Z91.674° ESE43.706°2025-07-03 19:02:46.916Z165.543° S
|